User: anonymous   Login
Location: Oshawa
(43.9000°N, 78.8670°W)
Time: 20:25:27
(UTC-04:00)
Language:

Altair - Orbit

View from above orbital plane
View from above orbital plane
View from above satellite
View from above satellite

Ground track
Ground track

The orbit data is extracted from the following two-line orbital elements,

1    50U 60009B   17179.56371325 -.00000047 +00000-0 +36187-3 0  9997
2    50 047.2305 248.3821 0113486 332.0301 027.4421 12.20100637537761
Epoch (UTC): 28 June 2017 13:31:44
Eccentricity: 0.0113486
inclination: 47.2305°
perigee height: 1501 km
apogee height: 1682 km
right ascension of ascending node: 248.3821°
argument of perigee: 332.0301°
revolutions per day: 12.20100637
mean anomaly at epoch: 27.4421°
orbit number at epoch: 53776

The dashed part of the orbit path shows where the satellite is in the earth's shadow,  

DLR